Location: Acheville
(50.3840°N, 2.8827°E)
Time: 15:48:51
(UTC+00:00)

NOSS 2 (A) - Pass Details

Date: 24 October 2021
Orbit: 273 x 1575 km, 63.3° (Epoch: 06 February)

Event Time Altitude Azimuth Distance (km) Brightness Sun altitude
Rises 17:20:10 0° 317° (NW) 2,314 9.0 -7.3°
Reaches altitude 10° 17:22:23 10° 318° (NW) 1,354 7.8 -7.6°
Maximum altitude 17:25:18 78° 45° (NE) 336 4.1 -8.1°
Drops below altitude 10° 17:27:48 10° 133° (SE) 1,165 6.6 -8.5°
Enters shadow 17:28:49 - 134° (SE) 1,607 7.4 -8.6°
